Theta_e
317 317 318 317 316 316 318 318 319 318 317 318 320 319 318 322 320 319 317 316 316 316 315 314 315 314 314 314 314 314 314 314 314 314 315 315 316 318 318 319 319 321 323 324
319 317 317 316 316 316 316 315 315 315 315 315 315 319 317 316 316 317 316 316 315 315 314 314 314 314 314 314 314 314 314 315 314 315 314 313 313 313 315 317 320 318 320 322
322 318 317 318 317 316 316 316 315 315 315 315 315 315 316 318 317 317 317 316 315 315 314 314 314 313 314 313 313 313 314 313 313 313 314 314 313 312 313 313 314 317 320 319
325 320 325 317 317 317 317 316 315 316 315 318 318 318 316 315 315 316 315 315 316 314 314 314 313 312 311 311 311 312 312 313 313 312 313 312 312 314 314 314 313 313 313 314
326 325 320 317 317 316 319 319 319 318 319 317 316 315 315 314 314 314 315 314 313 312 311 311 311 311 311 310 310 311 311 311 310 310 310 310 310 312 311 310 314 314 313 313
324 327 322 317 320 318 317 318 318 317 317 315 314 314 314 314 313 313 312 311 311 311 311 311 310 309 308 308 308 308 308 306 306 307 308 309 309 310 310 309 310 310 312 312
323 323 320 317 318 316 319 320 316 315 314 313 312 312 313 314 313 311 311 311 310 310 309 308 307 305 305 304 304 304 304 303 304 304 304 304 305 305 305 307 308 309 309 310
320 321 321 317 318 318 320 317 315 313 311 312 312 311 311 311 310 310 310 309 308 307 306 305 304 304 304 304 303 302 301 301 301 301 301 301 301 301 302 302 304 306 308 309
322 323 320 317 318 315 313 312 312 313 312 311 311 310 309 310 310 309 307 307 306 305 304 304 303 303 302 302 301 300 300 299 299 299 299 299 299 299 299 300 302 303 304 305
321 320 316 315 313 312 310 313 312 311 311 310 309 309 309 308 307 307 306 306 305 304 303 303 302 301 301 300 299 299 299 299 298 298 298 298 298 298 298 299 300 301 301 303
317 317 315 313 313 313 312 311 310 310 309 308 308 307 307 307 306 305 305 304 303 301 302 302 300 300 299 299 299 298 297 297 296 296 296 296 296 297 297 298 298 299 299 301
315 312 313 315 313 312 311 310 309 308 308 307 307 307 307 307 305 304 303 302 301 301 301 300 300 299 299 298 297 296 295 295 294 294 294 294 294 295 295 296 296 297 297 297
313 312 313 312 311 311 310 309 309 307 307 307 307 307 307 306 305 304 302 301 301 300 300 300 299 298 298 296 294 294 293 293 293 293 293 293 294 294 295 295 296 297 297 298
311 310 311 311 311 310 309 308 307 307 307 308 308 307 307 305 304 303 301 300 299 298 299 298 298 297 295 294 293 293 293 292 292 292 292 292 292 293 293 294 295 295 296 297
310 311 311 310 308 309 308 307 308 308 308 308 307 307 305 305 303 302 299 298 298 298 298 297 296 295 293 293 293 292 292 292 292 292 292 291 291 292 292 293 294 294 295 296
310 310 309 308 307 307 307 308 309 309 309 308 307 305 304 303 302 300 298 297 297 298 297 296 294 293 293 292 291 291 291 290 291 291 291 291 291 291 292 293 294 294 295 295
310 309 308 307 308 310 309 309 309 308 308 306 305 303 302 302 300 298 297 297 297 297 296 294 293 293 292 291 290 290 290 290 290 291 292 292 292 292 292 292 293 293 294 295
309 308 309 309 310 309 309 308 308 307 307 305 303 301 301 300 298 297 297 296 297 296 296 294 294 293 292 291 291 290 290 290 291 291 291 291 292 291 292 292 293 293 293 294
307 309 309 309 309 310 309 309 308 307 305 303 301 299 299 297 297 297 297 296 297 296 295 295 294 292 292 292 292 291 291 291 291 291 291 291 291 292 292 292 292 292 293 293
308 309 309 309 309 309 309 309 308 307 304 302 299 297 296 296 296 296 296 296 295 295 294 294 293 292 291 292 292 293 292 292 292 291 291 290 291 291 291 292 292 292 292 293
308 309 309 309 309 309 309 309 308 307 306 302 298 295 295 296 296 296 297 296 295 294 293 293 292 291 291 292 292 293 294 293 292 291 291 290 290 290 290 290 291 291 292 292
308 308 308 309 309 309 309 309 308 307 305 304 301 297 296 296 297 296 296 295 294 292 292 293 291 291 292 293 293 293 293 293 292 291 290 289 289 289 289 289 289 290 290 291
308 308 309 309 310 310 310 310 309 307 306 306 300 297 296 297 297 296 296 295 293 293 293 293 292 292 293 293 293 293 292 292 291 290 289 289 289 289 288 289 289 289 289 289
309 309 309 309 309 310 311 310 310 309 307 306 302 299 300 300 299 296 295 294 294 294 295 294 293 293 294 293 293 292 291 291 290 289 288 288 288 288 288 288 288 288 288 288
309 309 308 309 310 310 310 309 309 309 307 306 304 303 303 301 299 298 297 296 296 296 296 295 294 293 294 293 292 292 291 290 289 288 288 287 287 287 287 287 287 288 288 288
309 310 310 309 309 310 309 309 309 308 306 304 303 302 301 301 300 299 298 297 297 296 296 295 294 293 293 293 292 291 290 289 288 288 287 287 287 287 287 287 287 287 287 287
309 309 309 310 309 310 309 309 309 309 307 303 303 301 301 300 300 299 298 297 296 296 296 296 295 293 293 292 291 290 289 288 288 287 287 286 286 286 286 286 287 287 287 287
Wind_Speed
15 17 16 15 12 13 17 17 15 15 18 12 13 10 6 11 12 16 7 6 6 7 8 11 13 13 14 15 16 16 15 15 16 17 18 20 21 20 21 22 25 27 26 22
16 17 15 16 18 19 19 19 22 19 18 13 9 14 14 13 8 5 6 9 8 8 13 15 15 15 17 17 16 17 18 19 20 20 19 19 20 21 22 22 22 23 26 27
14 17 17 13 17 14 17 19 14 16 15 1 2 1 6 7 7 8 9 8 7 6 10 13 16 18 16 18 20 20 19 20 22 22 23 22 21 21 21 20 20 21 23 28
11 13 16 15 17 8 11 13 12 11 8 12 9 5 4 7 10 11 11 13 12 14 17 16 18 21 23 22 22 22 23 23 23 23 20 22 25 22 22 21 19 18 22 26
9 10 15 17 8 5 5 4 5 8 10 9 9 6 7 11 9 8 9 11 16 17 19 19 18 20 23 22 23 24 24 24 26 25 25 23 25 24 26 28 23 20 20 23
9 3 7 7 5 1 3 6 4 7 6 2 5 6 6 7 7 9 12 15 17 19 21 21 21 22 21 22 23 24 24 25 26 26 26 25 24 26 26 27 26 25 24 23
13 11 8 14 10 5 9 2 7 5 3 5 6 7 9 11 12 15 16 18 19 18 18 20 20 19 20 21 21 24 27 27 27 26 27 27 27 25 26 26 26 26 25 25
14 16 16 4 8 8 7 6 4 1 5 6 7 10 10 12 12 15 16 16 15 16 17 17 17 15 15 17 20 21 24 25 25 25 25 25 27 27 28 28 29 28 27 26
5 3 7 8 11 4 5 1 5 6 7 6 8 10 11 11 11 11 15 14 14 15 17 16 18 19 20 22 23 24 25 25 26 27 27 27 26 26 24 25 24 25 24 27
9 11 10 9 6 4 3 7 6 4 4 7 9 9 10 11 11 13 15 15 15 17 18 18 17 18 19 21 23 23 25 25 26 25 26 27 26 25 24 24 23 22 22 22
5 13 13 7 8 9 8 4 2 3 7 6 7 7 9 9 11 15 16 17 17 17 16 16 21 20 21 22 22 23 23 25 26 25 24 25 25 25 24 25 25 24 23 22
3 0 3 10 5 6 4 2 5 6 4 5 5 7 9 9 14 14 16 16 15 16 16 19 19 20 21 21 21 23 26 25 25 27 27 26 26 27 27 29 30 32 34 35
9 6 11 9 6 5 4 2 7 3 2 4 6 8 10 12 13 12 14 15 14 15 18 19 20 21 22 23 26 27 27 27 26 26 26 25 23 23 23 24 26 27 28 31
9 5 7 6 5 2 6 4 5 3 5 4 9 11 13 12 14 14 13 15 17 18 18 20 21 22 24 28 28 27 27 26 26 26 25 24 23 24 24 23 21 21 22 23
7 8 7 4 4 7 7 2 2 5 4 7 8 12 11 12 13 12 13 14 16 16 17 19 21 24 27 27 27 26 26 25 26 25 25 25 25 24 23 23 22 22 22 22
7 6 7 6 7 7 2 1 4 6 7 9 11 10 12 12 11 12 13 14 16 16 17 20 22 26 29 29 27 26 25 27 27 25 25 24 23 21 20 20 21 20 20 20
6 9 10 9 7 7 8 6 6 6 8 8 10 11 12 12 12 13 14 15 16 15 17 21 24 27 29 27 26 26 26 26 27 24 23 23 22 21 20 20 20 19 21 21
12 7 12 10 8 8 7 8 9 9 9 10 10 12 12 12 12 13 15 16 13 16 17 23 25 29 29 29 28 28 26 26 25 25 25 23 22 23 22 20 20 20 20 20
16 13 13 13 13 12 12 11 10 8 8 10 11 13 12 11 11 12 13 14 14 15 23 23 27 28 28 31 32 30 25 25 25 25 24 25 24 23 21 21 20 20 20 20
16 17 16 15 13 12 12 12 11 10 10 11 11 12 11 11 12 13 13 12 16 16 24 24 23 28 31 29 31 29 25 25 25 25 25 26 23 24 23 23 23 21 19 19
13 15 14 11 10 9 9 9 11 12 10 8 8 8 10 10 11 12 13 12 20 24 23 22 23 28 31 30 28 26 26 26 26 25 25 26 26 25 25 24 23 22 20 19
12 11 9 8 7 7 5 5 9 10 7 4 3 4 6 9 10 12 13 13 16 23 21 18 23 29 31 28 26 27 28 28 28 27 27 27 26 27 26 25 24 22 21 20
10 6 5 5 3 4 1 5 5 4 2 2 5 5 3 7 9 10 11 13 18 20 17 21 26 30 30 25 28 28 29 29 29 29 29 29 29 27 27 26 26 24 22 21
7 3 4 2 4 3 6 4 2 2 1 2 5 3 4 4 7 11 10 13 18 18 15 23 24 28 26 27 28 29 30 30 31 33 32 32 30 29 28 27 26 25 24 22
4 5 3 3 4 3 2 3 1 2 7 5 6 3 1 2 9 6 12 12 17 19 13 20 22 25 25 27 30 31 31 32 34 34 35 33 32 32 30 29 28 27 26 23
14 7 10 3 8 9 4 1 8 9 12 13 9 8 7 5 6 7 13 15 18 20 17 19 20 24 25 27 30 32 33 34 36 38 37 35 35 33 32 32 30 28 26 25
7 8 1 4 4 4 5 7 10 10 10 13 11 11 10 11 9 12 14 16 18 20 20 19 22 25 25 28 31 33 34 36 38 40 38 37 36 35 36 34 31 30 28 27
Wind_Direction
267 271 270 278 281 261 227 231 242 270 282 252 235 222 244 214 228 279 320 325 12 7 357 346 349 348 333 338 332 323 317 314 309 309 303 307 309 305 304 304 306 311 315 320
274 272 278 271 267 261 257 272 276 270 262 261 234 205 204 235 270 287 326 331 335 359 353 345 332 329 321 313 311 320 318 308 303 298 290 291 296 301 303 301 300 300 305 311
258 280 287 271 271 268 278 256 263 266 279 251 7 53 38 16 3 330 320 318 344 333 325 323 320 313 320 326 325 318 311 305 302 299 298 291 283 284 285 291 304 311 309 305
263 271 268 272 284 254 294 299 309 335 347 77 80 74 59 360 18 8 356 346 337 331 325 330 335 329 322 325 321 318 319 315 307 301 323 341 340 324 295 278 277 288 300 307
263 252 273 273 281 182 294 278 48 48 19 32 32 19 64 34 4 340 329 324 315 325 321 321 327 350 352 341 329 322 314 317 318 322 326 323 322 324 319 318 313 284 281 288
234 225 243 246 95 136 172 237 46 47 87 174 316 283 157 31 338 328 333 330 340 356 348 341 342 346 342 329 325 319 320 324 328 327 323 321 316 305 305 303 300 299 293 283
234 238 253 254 152 187 228 130 84 45 15 344 315 329 331 324 338 345 357 351 333 330 332 339 337 335 326 321 317 319 320 320 316 314 312 311 307 303 307 307 301 288 284 288
228 237 234 160 138 265 92 135 131 320 326 352 344 305 319 337 340 343 320 317 331 336 330 326 318 320 318 310 309 313 311 306 305 304 304 302 298 297 297 295 293 287 289 279
162 174 127 134 135 152 84 359 43 25 20 334 310 330 327 339 313 324 339 335 336 325 322 334 339 328 324 317 317 314 307 302 300 298 297 295 295 293 291 287 281 283 279 276
151 154 138 156 155 159 109 65 37 354 291 350 330 330 335 342 338 331 338 344 340 331 326 323 324 332 320 317 317 314 309 308 306 302 299 295 289 284 282 281 276 270 273 279
192 141 165 155 77 65 77 75 278 308 10 339 1 342 344 338 342 341 348 341 343 334 324 328 331 325 320 316 316 313 311 309 306 302 300 299 292 285 280 277 274 273 273 278
53 37 78 139 104 97 89 32 26 15 341 11 350 338 338 356 341 354 338 339 334 328 326 321 325 322 321 326 327 320 313 310 307 303 300 297 294 291 285 278 277 272 271 267
118 131 111 128 114 168 87 20 55 311 12 325 323 342 350 357 335 344 344 337 340 334 324 331 330 326 332 333 326 317 310 307 307 303 301 297 296 292 292 292 284 277 272 271
132 111 87 95 107 247 95 88 143 280 269 314 25 4 11 338 342 350 349 344 340 336 336 336 332 331 332 328 321 314 311 308 307 303 301 298 295 292 289 288 287 284 279 275
104 95 137 173 200 112 102 97 312 269 345 8 3 30 349 348 352 0 351 349 340 334 338 337 338 332 331 328 325 322 317 312 308 304 300 298 293 286 284 284 281 281 281 278
151 177 156 104 85 71 82 68 353 7 16 10 20 358 353 355 357 8 352 351 339 338 347 345 336 332 333 334 330 326 320 319 320 311 304 299 295 289 285 284 283 279 276 274
189 161 125 103 78 60 44 35 33 30 31 24 9 1 359 2 9 358 353 348 338 349 350 346 336 337 338 339 336 325 320 319 321 318 313 308 300 296 291 287 280 279 276 273
120 101 75 70 67 65 64 59 55 48 40 26 13 13 10 17 3 351 346 340 345 346 347 342 342 343 341 345 342 332 325 318 316 312 311 309 307 306 298 293 288 282 279 275
103 95 94 91 89 82 69 62 58 52 40 29 24 20 15 14 353 348 343 346 355 346 344 342 348 344 339 343 346 336 328 325 324 321 319 317 313 307 303 299 293 290 284 278
108 108 106 96 85 78 75 63 53 44 46 38 30 21 16 360 359 353 349 355 1 357 346 348 348 347 343 342 343 335 324 326 324 321 322 320 317 313 309 306 299 291 289 281
128 131 102 101 95 84 74 60 54 44 37 57 48 31 6 360 356 355 350 352 350 349 346 351 350 346 349 346 345 335 333 329 328 326 323 321 319 316 313 311 309 305 299 291
146 127 144 126 109 95 68 64 61 67 41 98 75 52 26 6 1 360 359 354 352 357 356 350 351 355 355 352 343 340 338 335 333 330 327 322 318 315 313 313 312 308 305 298
112 136 119 132 176 88 336 76 62 105 138 54 159 139 103 28 0 355 338 2 356 354 348 355 358 0 356 351 347 343 341 338 336 333 329 325 320 317 316 315 312 310 306 301
145 151 148 257 35 333 262 67 79 66 152 58 144 138 123 46 12 6 1 352 346 344 350 357 355 358 357 354 350 347 343 340 338 335 333 331 327 325 323 319 316 314 310 305
173 184 221 164 204 286 12 346 325 354 36 147 71 82 26 84 25 14 355 347 345 348 352 4 3 2 359 358 355 349 346 343 341 339 337 335 333 332 331 330 325 320 317 312
73 290 251 310 5 355 22 85 63 43 22 0 46 27 29 45 18 10 2 10 4 359 4 10 10 8 2 1 356 353 349 347 346 345 343 341 340 339 340 339 337 334 330 326
205 221 204 282 217 233 28 42 68 35 32 9 7 20 22 12 19 20 15 10 10 2 360 13 13 10 5 5 359 356 354 351 351 349 348 347 346 346 347 346 345 345 344 344